CW0001 Weather Reports


time (UTC)temp
F
wind
direction
speed
knots
gust
knots
rain 1hr
in
rain 24hr
in
rain mn
in
humidity
%
barometer
mb
20260506132127 43 0 0.0 0.0 0.00 0.00 0.00 84 1011.0
20260506131628 43 0 0.0 0.0 0.00 0.00 0.00 82 1011.0
20260506131129 44 0 0.0 0.0 0.00 0.00 0.00 82 1011.0
20260506130629 44 0 0.0 0.0 0.00 0.00 0.00 80 1011.0
20260506130128 43 171 0.9 0.9 0.00 0.00 0.00 80 1011.0
20260506125627 43 127 0.9 0.9 0.00 0.00 0.00 84 1011.0
20260506125130 43 160 0.9 0.9 0.00 0.00 0.00 84 1011.0
20260506124627 43 148 0.9 0.9 0.00 0.00 0.00 84 1011.0
20260506124127 44 154 0.9 0.9 0.00 0.00 0.00 84 1011.0
20260506123627 44 109 1.7 1.7 0.00 0.00 0.00 82 1011.0
20260506123127 44 237 0.0 0.0 0.00 0.00 0.00 81 1011.0
20260506122627 44 243 0.0 0.0 0.00 0.00 0.00 81 1011.0
20260506122128 44 248 0.9 0.9 0.00 0.00 0.00 81 1011.0
20260506121627 44 0 0.0 0.0 0.00 0.00 0.00 81 1011.0
20260506121128 44 153 0.0 0.9 0.00 0.00 0.00 80 1011.0
20260506120627 44 128 0.9 0.9 0.00 0.00 0.00 79 1011.0
20260506120128 45 134 0.9 0.9 0.00 0.00 0.00 77 1011.0
20260506115627 45 164 0.9 1.7 0.00 0.00 0.00 78 1011.0
20260506115127 45 198 1.7 1.7 0.00 0.00 0.00 78 1011.0
20260506114627 45 182 0.0 0.9 0.00 0.00 0.00 80 1011.0
20260506114128 45 0 0.0 0.0 0.00 0.00 0.00 79 1011.0
20260506113627 46 62 0.9 0.9 0.00 0.00 0.00 77 1011.0
20260506113127 45 195 1.7 1.7 0.00 0.00 0.00 77 1011.0
20260506112628 45 197 1.7 1.7 0.00 0.00 0.00 79 1011.0
20260506112127 45 0 0.0 0.0 0.00 0.00 0.00 80 1011.0
20260506111627 45 136 0.0 0.0 0.00 0.00 0.00 80 1011.0
20260506111127 45 168 0.9 0.9 0.00 0.00 0.00 80 1011.0
20260506110627 46 0 0.0 0.0 0.00 0.00 0.00 80 1011.0
20260506110127 46 147 0.9 0.9 0.00 0.00 0.00 80 1011.0
20260506105628 46 125 1.7 1.7 0.00 0.00 0.00 80 1011.0
20260506105127 47 162 0.9 0.9 0.00 0.00 0.00 77 1011.0
20260506104627 47 0 0.0 0.0 0.00 0.00 0.00 78 1011.0
20260506104127 47 219 1.7 1.7 0.00 0.00 0.00 77 1011.0
20260506103627 47 192 0.0 0.9 0.00 0.00 0.00 77 1010.0
20260506103127 47 201 0.9 1.7 0.00 0.00 0.00 76 1010.0
20260506102627 47 0 0.0 0.0 0.00 0.00 0.00 76 1010.0
20260506102127 46 171 0.9 0.9 0.00 0.00 0.00 76 1010.0
20260506101627 47 160 0.9 0.9 0.00 0.00 0.00 76 1010.0
20260506101127 47 131 0.9 0.9 0.00 0.00 0.00 74 1010.0
20260506100627 47 207 0.9 0.9 0.00 0.00 0.00 74 1010.0
20260506100127 48 115 0.9 0.9 0.00 0.00 0.00 74 1010.0
20260506095628 48 0 0.0 0.0 0.00 0.00 0.00 74 1010.0
20260506095127 49 193 0.9 1.7 0.00 0.00 0.00 73 1010.0
20260506094627 49 0 0.0 0.0 0.00 0.00 0.00 74 1010.0
20260506094127 49 235 0.9 1.7 0.00 0.00 0.00 72 1010.0
20260506093628 49 87 0.0 1.7 0.00 0.00 0.00 73 1010.0
20260506093127 49 259 0.9 1.7 0.00 0.00 0.00 72 1010.0
20260506092627 49 210 1.7 1.7 0.00 0.00 0.00 75 1010.0
20260506092127 50 90 1.7 1.7 0.00 0.00 0.00 74 1010.0
20260506091628 50 195 0.9 1.7 0.00 0.00 0.00 71 1010.0
20260506091128 51 180 0.9 0.9 0.00 0.00 0.00 71 1010.0
20260506090627 51 173 1.7 2.6 0.00 0.00 0.00 70 1010.0
20260506090128 51 186 0.9 1.7 0.00 0.00 0.00 67 1010.0
20260506085628 51 195 0.0 0.9 0.00 0.00 0.00 70 1010.0
20260506085128 51 246 0.9 1.7 0.00 0.00 0.00 70 1010.0
20260506084627 51 188 1.7 2.6 0.00 0.00 0.00 67 1009.0
20260506084127 52 152 0.9 0.9 0.00 0.00 0.00 65 1009.0
20260506083628 52 286 1.7 1.7 0.00 0.00 0.00 67 1009.0
20260506083127 52 137 0.0 1.7 0.00 0.00 0.00 67 1009.0
20260506082628 52 167 0.9 1.7 0.00 0.00 0.00 66 1009.0
20260506082128 52 240 0.9 1.7 0.00 0.00 0.00 66 1009.0
20260506081627 52 228 0.9 0.9 0.00 0.00 0.00 66 1009.0
20260506081127 53 0 0.0 0.0 0.00 0.00 0.00 68 1009.0
20260506080627 53 0 0.0 0.0 0.00 0.00 0.00 63 1009.0
20260506080127 53 173 0.0 0.0 0.00 0.00 0.00 62 1009.0
20260506073128 54 144 1.7 3.5 0.00 0.00 0.00 61 1009.0
20260506072627 55 309 0.9 2.6 0.00 0.00 0.00 67 1009.0
20260506072128 55 0 0.0 0.0 0.00 0.00 0.00 61 1009.0
20260506071627 56 180 1.7 2.6 0.00 0.00 0.00 58 1009.0
20260506071127 55 165 2.6 3.5 0.00 0.00 0.00 57 1009.0
20260506070627 55 187 1.7 2.6 0.00 0.00 0.00 61 1009.0
20260506070128 55 3 0.9 2.6 0.00 0.00 0.00 62 1009.0
20260506062127 59 35 1.7 3.5 0.00 0.00 0.00 55 1008.0
20260506061627 59 203 1.7 2.6 0.00 0.00 0.00 57 1008.0
20260506061128 60 320 0.9 2.6 0.00 0.00 0.00 60 1008.0
20260506060628 61 159 3.5 5.2 0.00 0.00 0.00 50 1008.0
20260506060127 61 129 1.7 2.6 0.00 0.00 0.00 48 1008.0
20260506051127 66 137 1.7 2.6 0.00 0.00 0.00 41 1008.0
20260506050627 66 109 1.7 4.3 0.00 0.00 0.00 40 1008.0
20260506050127 66 107 1.7 2.6 0.00 0.00 0.00 42 1008.0
20260506045127 67 133 1.7 2.6 0.00 0.00 0.00 41 1008.0
20260506044627 68 144 4.3 7.0 0.00 0.00 0.00 39 1008.0
20260506044129 67 139 2.6 3.5 0.00 0.00 0.00 37 1008.0
20260506043627 67 101 2.6 4.3 0.00 0.00 0.00 37 1008.0
20260506043127 67 60 1.7 3.5 0.00 0.00 0.00 40 1008.0
20260506042627 67 56 1.7 2.6 0.00 0.00 0.00 41 1008.0
20260506042127 68 131 1.7 3.5 0.00 0.00 0.00 41 1008.0
20260506041627 69 142 4.3 7.0 0.00 0.00 0.00 39 1008.0
20260506041127 70 155 1.7 3.5 0.00 0.00 0.00 36 1008.0
20260506040628 70 85 4.3 6.1 0.00 0.00 0.00 36 1007.0
20260506040127 70 72 2.6 5.2 0.00 0.00 0.00 36 1007.0
20260506035628 70 72 4.3 5.2 0.00 0.00 0.00 36 1007.0
20260506035128 70 48 3.5 5.2 0.00 0.00 0.00 37 1007.0
20260506034627 70 84 4.3 7.0 0.00 0.00 0.00 37 1007.0
20260506034127 70 73 2.6 5.2 0.00 0.00 0.00 38 1007.0
20260506033627 71 105 3.5 4.3 0.00 0.00 0.00 37 1007.0
20260506033128 71 96 3.5 7.8 0.00 0.00 0.00 37 1007.0
20260506032627 72 113 2.6 4.3 0.00 0.00 0.00 36 1007.0
20260506032128 73 133 1.7 3.5 0.00 0.00 0.00 36 1007.0
20260506031627 73 143 1.7 4.3 0.00 0.00 0.00 35 1007.0
20260506031127 73 131 3.5 5.2 0.00 0.00 0.00 35 1007.0
20260506030627 74 146 2.6 4.3 0.00 0.00 0.00 35 1007.0
20260506030127 75 162 3.5 4.3 0.00 0.00 0.00 34 1007.0
20260506025628 75 141 5.2 7.0 0.00 0.00 0.00 34 1007.0
20260506025127 75 143 4.3 5.2 0.00 0.00 0.00 34 1007.0
20260506024627 76 141 3.5 5.2 0.00 0.00 0.00 34 1007.0
20260506024127 76 131 4.3 6.1 0.00 0.00 0.00 34 1007.0
20260506023628 76 152 1.7 3.5 0.00 0.00 0.00 34 1007.0
20260506023127 77 142 2.6 3.5 0.00 0.00 0.00 35 1007.0
20260506022627 78 145 2.6 3.5 0.00 0.00 0.00 35 1007.0
20260506022136 78 122 2.6 5.2 0.00 0.00 0.00 35 1007.0
20260506021628 79 143 3.5 6.1 0.00 0.00 0.00 34 1007.0
20260506021128 80 139 4.3 7.0 0.00 0.00 0.00 33 1007.0
20260506020627 81 113 3.5 4.3 0.00 0.00 0.00 30 1007.0
20260506020128 81 114 3.5 5.2 0.00 0.00 0.00 29 1007.0
20260506015628 81 103 3.5 5.2 0.00 0.00 0.00 30 1007.0
20260506015127 81 126 2.6 3.5 0.00 0.00 0.00 30 1007.0
20260506014627 81 84 3.5 5.2 0.00 0.00 0.00 30 1007.0
20260506014127 82 129 2.6 3.5 0.00 0.00 0.00 31 1007.0
20260506013627 82 152 2.6 4.3 0.00 0.00 0.00 29 1007.0
20260506013129 82 128 2.6 4.3 0.00 0.00 0.00 32 1007.0
20260506012627 82 131 3.5 6.1 0.00 0.00 0.00 29 1007.0
20260506012128 82 120 3.5 5.2 0.00 0.00 0.00 30 1007.0
20260506011628 82 129 3.5 4.3 0.00 0.00 0.00 31 1007.0
20260506011127 82 122 2.6 4.3 0.00 0.00 0.00 30 1007.0
20260506010627 83 103 4.3 6.1 0.00 0.00 0.00 29 1007.0
20260506010129 83 123 2.6 4.3 0.00 0.00 0.00 29 1007.0
20260506005630 83 130 3.5 5.2 0.00 0.00 0.00 30 1007.0
20260506005127 83 121 1.7 2.6 0.00 0.00 0.00 30 1007.0
20260506004628 83 121 0.9 2.6 0.00 0.00 0.00 27 1007.0
20260506004127 83 150 0.9 2.6 0.00 0.00 0.00 28 1007.0
20260506003627 83 76 2.6 4.3 0.00 0.00 0.00 29 1007.0
20260506003127 83 97 3.5 7.0 0.00 0.00 0.00 31 1007.0
20260506002627 83 123 3.5 6.1 0.00 0.00 0.00 29 1008.0
20260506002128 83 131 1.7 2.6 0.00 0.00 0.00 29 1008.0
20260506001627 83 123 1.7 3.5 0.00 0.00 0.00 29 1008.0
20260506001128 83 164 2.6 4.3 0.00 0.00 0.00 29 1008.0
20260506000627 83 163 0.9 1.7 0.00 0.00 0.00 28 1008.0
20260506000127 83 184 0.9 1.7 0.00 0.00 0.00 28 1008.0
20260505235627 83 83 2.6 3.5 0.00 0.00 0.00 29 1008.0
20260505235127 83 237 0.0 0.9 0.00 0.00 0.00 31 1008.0
20260505234628 83 351 1.7 3.5 0.00 0.00 0.00 28 1008.0
20260505234127 83 101 4.3 5.2 0.00 0.00 0.00 29 1008.0
20260505233627 84 285 1.7 3.5 0.00 0.00 0.00 29 1008.0
20260505233127 83 237 0.9 2.6 0.00 0.00 0.00 31 1008.0
20260505232627 84 161 2.6 3.5 0.00 0.00 0.00 27 1008.0
20260505232127 84 175 0.9 2.6 0.00 0.00 0.00 28 1008.0
20260505231627 84 218 1.7 1.7 0.00 0.00 0.00 30 1008.0
20260505231127 84 183 2.6 5.2 0.00 0.00 0.00 29 1008.0
20260505230627 83 210 1.7 2.6 0.00 0.00 0.00 28 1009.0
20260505230127 82 99 0.0 1.7 0.00 0.00 0.00 28 1009.0
20260505225628 82 316 0.9 2.6 0.00 0.00 0.00 30 1009.0
20260505225127 81 138 3.5 5.2 0.00 0.00 0.00 31 1009.0
20260505224628 81 108 1.7 3.5 0.00 0.00 0.00 33 1009.0
20260505224127 82 129 3.5 6.1 0.00 0.00 0.00 30 1009.0
20260505223627 82 168 2.6 3.5 0.00 0.00 0.00 28 1009.0
20260505223127 81 332 2.6 5.2 0.00 0.00 0.00 30 1009.0
20260505222627 81 321 3.5 7.0 0.00 0.00 0.00 30 1009.0
20260505222128 81 270 1.7 3.5 0.00 0.00 0.00 29 1009.0
20260505221627 81 136 1.7 2.6 0.00 0.00 0.00 31 1009.0
20260505221127 80 1 1.7 3.5 0.00 0.00 0.00 30 1009.0
20260505220627 80 82 1.7 3.5 0.00 0.00 0.00 31 1010.0
20260505220127 80 122 2.6 5.2 0.00 0.00 0.00 32 1010.0
20260505215627 80 98 3.5 7.0 0.00 0.00 0.00 32 1010.0
20260505215127 80 146 0.9 1.7 0.00 0.00 0.00 29 1010.0
20260505214627 80 85 2.6 3.5 0.00 0.00 0.00 30 1010.0
20260505214128 80 184 1.7 2.6 0.00 0.00 0.00 31 1010.0
20260505213628 79 157 1.7 4.3 0.00 0.00 0.00 32 1010.0
20260505213127 79 50 0.9 2.6 0.00 0.00 0.00 30 1010.0
20260505212628 79 91 1.7 3.5 0.00 0.00 0.00 32 1010.0
20260505212127 79 103 1.7 2.6 0.00 0.00 0.00 31 1010.0
20260505211627 79 84 1.7 3.5 0.00 0.00 0.00 33 1010.0
20260505211127 79 288 2.6 5.2 0.00 0.00 0.00 32 1010.0
20260505210628 79 0 1.7 4.3 0.00 0.00 0.00 34 1010.0
20260505210127 78 58 1.7 5.2 0.00 0.00 0.00 32 1010.0
20260505205627 78 113 3.5 4.3 0.00 0.00 0.00 31 1010.0
20260505205127 78 303 1.7 2.6 0.00 0.00 0.00 30 1010.0
20260505204628 78 131 3.5 4.3 0.00 0.00 0.00 32 1011.0
20260505204133 78 157 1.7 4.3 0.00 0.00 0.00 31 1011.0
20260505203628 77 324 2.6 5.2 0.00 0.00 0.00 33 1011.0
20260505203127 77 321 2.6 4.3 0.00 0.00 0.00 34 1011.0
20260505202627 77 306 0.9 1.7 0.00 0.00 0.00 30 1011.0
20260505202128 76 327 1.7 3.5 0.00 0.00 0.00 34 1011.0
20260505201628 76 140 1.7 5.2 0.00 0.00 0.00 32 1011.0
20260505201127 76 127 3.5 6.1 0.00 0.00 0.00 35 1011.0
20260505200627 76 92 1.7 2.6 0.00 0.00 0.00 33 1011.0
20260505200128 75 47 1.7 3.5 0.00 0.00 0.00 33 1011.0
20260505195627 75 77 3.5 4.3 0.00 0.00 0.00 34 1011.0
20260505195127 75 85 1.7 3.5 0.00 0.00 0.00 35 1011.0
20260505194627 75 164 2.6 4.3 0.00 0.00 0.00 31 1011.0
20260505194127 75 92 2.6 6.1 0.00 0.00 0.00 35 1011.0
20260505193627 76 118 3.5 5.2 0.00 0.00 0.00 33 1011.0
20260505193128 75 327 2.6 4.3 0.00 0.00 0.00 34 1011.0
20260505192627 75 220 1.7 3.5 0.00 0.00 0.00 33 1012.0
20260505192127 75 260 0.9 3.5 0.00 0.00 0.00 34 1012.0
20260505191627 75 147 2.6 5.2 0.00 0.00 0.00 33 1012.0
20260505191127 74 141 0.9 2.6 0.00 0.00 0.00 35 1012.0
20260505190629 74 229 1.7 4.3 0.00 0.00 0.00 34 1012.0
20260505190127 73 191 3.5 5.2 0.00 0.00 0.00 34 1012.0
20260505185627 73 194 2.6 5.2 0.00 0.00 0.00 33 1012.0
20260505185128 73 182 2.6 5.2 0.00 0.00 0.00 33 1012.0
20260505184627 73 184 1.7 4.3 0.00 0.00 0.00 33 1012.0
20260505184127 73 211 1.7 4.3 0.00 0.00 0.00 33 1012.0
20260505183628 72 192 2.6 4.3 0.00 0.00 0.00 35 1012.0
20260505183127 72 211 1.7 3.5 0.00 0.00 0.00 36 1012.0
20260505182628 72 340 0.9 2.6 0.00 0.00 0.00 33 1012.0
20260505182128 71 192 2.6 6.1 0.00 0.00 0.00 37 1012.0
20260505181627 71 167 1.7 3.5 0.00 0.00 0.00 35 1012.0
20260505181127 71 264 1.7 4.3 0.00 0.00 0.00 37 1012.0
20260505180627 70 263 2.6 4.3 0.00 0.00 0.00 36 1012.0
20260505180127 70 206 1.7 2.6 0.00 0.00 0.00 37 1012.0
20260505175628 69 266 1.7 2.6 0.00 0.00 0.00 38 1012.0
20260505175128 69 81 1.7 2.6 0.00 0.00 0.00 38 1013.0
20260505174627 69 202 1.7 3.5 0.00 0.00 0.00 40 1013.0
20260505174127 68 191 0.9 3.5 0.00 0.00 0.00 43 1013.0
20260505173627 68 197 2.6 3.5 0.00 0.00 0.00 41 1013.0
20260505173128 68 231 1.7 5.2 0.00 0.00 0.00 43 1013.0
20260505172627 67 156 3.5 7.0 0.00 0.00 0.00 41 1013.0
20260505172127 67 242 2.6 3.5 0.00 0.00 0.00 43 1013.0
20260505171627 66 171 2.6 5.2 0.00 0.00 0.00 44 1013.0
20260505171128 66 214 2.6 4.3 0.00 0.00 0.00 45 1013.0
20260505170627 66 235 1.7 3.5 0.00 0.00 0.00 43 1013.0
20260505170128 65 215 0.9 1.7 0.00 0.00 0.00 44 1013.0
20260505165627 65 227 1.7 3.5 0.00 0.00 0.00 46 1013.0
20260505165128 64 202 1.7 4.3 0.00 0.00 0.00 46 1013.0
20260505164627 64 196 1.7 2.6 0.00 0.00 0.00 47 1013.0
20260505164128 63 262 1.7 3.5 0.00 0.00 0.00 49 1013.0
20260505163627 63 229 1.7 2.6 0.00 0.00 0.00 48 1013.0
20260505163128 63 225 1.7 3.5 0.00 0.00 0.00 50 1013.0
20260505162628 62 202 1.7 1.7 0.00 0.00 0.00 49 1013.0
20260505162127 62 191 0.9 1.7 0.00 0.00 0.00 49 1013.0
20260505161627 62 158 1.7 3.5 0.00 0.00 0.00 50 1013.0
20260505161127 61 242 1.7 3.5 0.00 0.00 0.00 49 1013.0
20260505160628 60 122 0.9 1.7 0.00 0.00 0.00 51 1013.0
20260505160128 59 162 0.9 2.6 0.00 0.00 0.00 51 1013.0
20260505153127 58 214 0.9 1.7 0.00 0.00 0.00 53 1014.0
20260505152628 58 168 1.7 1.7 0.00 0.00 0.00 54 1014.0
20260505152127 59 163 1.7 2.6 0.00 0.00 0.00 52 1014.0
20260505151627 58 177 1.7 2.6 0.00 0.00 0.00 52 1014.0
20260505151128 57 168 0.9 2.6 0.00 0.00 0.00 54 1014.0
20260505150630 56 122 0.9 0.9 0.00 0.00 0.00 54 1014.0
20260505150129 56 121 0.9 1.7 0.00 0.00 0.00 56 1014.0
20260505140628 47 84 0.0 0.9 0.00 0.00 0.00 70 1014.0
20260505140127 46 77 0.0 0.0 0.00 0.00 0.00 73 1014.0